Time,TemperatureF,DewpointF,PressureIn,WindDirection,WindDirectionDegrees,WindSpeedMPH,WindSpeedGustMPH,Humidity,HourlyPrecipIn,Conditions,Clouds,dailyrainin,SoftwareType,DateUTC
2013-01-13 00:07:00,13.8,7.0,30.14,WNW,302,15.0,18.0,73,0.00,,,0.00,weatherlink.com 1.10,2013-01-13 06:07:00,
2013-01-13 00:22:00,13.5,7.0,30.15,WNW,289,11.0,18.0,75,0.00,,,0.00,weatherlink.com 1.10,2013-01-13 06:22:00,
2013-01-13 00:37:00,13.4,7.0,30.16,WNW,302,17.0,17.0,75,0.00,,,0.00,weatherlink.com 1.10,2013-01-13 06:37:00,
2013-01-13 00:52:00,13.2,6.0,30.16,NW,307,14.0,19.0,73,0.00,,,0.00,weatherlink.com 1.10,2013-01-13 06:52:00,
2013-01-13 01:07:00,12.8,6.0,30.18,WNW,294,12.0,19.0,74,0.00,,,0.00,weatherlink.com 1.10,2013-01-13 07:07:00,
2013-01-13 01:22:00,12.5,5.0,30.19,WNW,299,10.0,16.0,73,0.00,,,0.00,weatherlink.com 1.10,2013-01-13 07:22:00,
2013-01-13 01:37:00,12.2,5.0,30.19,WNW,301,13.0,18.0,72,0.00,,,0.00,weatherlink.com 1.10,2013-01-13 07:37:00,
2013-01-13 01:52:00,11.9,4.0,30.19,NW,321,10.0,20.0,71,0.00,,,0.00,weatherlink.com 1.10,2013-01-13 07:52:00,
2013-01-13 02:07:00,11.7,5.0,30.19,NW,313,11.0,16.0,73,0.00,,,0.00,weatherlink.com 1.10,2013-01-13 08:07:00,
2013-01-13 02:23:00,11.6,5.0,30.18,NW,312,13.0,14.0,73,0.00,,,0.00,weatherlink.com 1.10,2013-01-13 08:23:00,
2013-01-13 02:38:00,11.4,5.0,30.19,NW,324,13.0,17.0,74,0.00,,,0.00,weatherlink.com 1.10,2013-01-13 08:38:00,
2013-01-13 02:53:00,11.3,5.0,30.19,NW,304,11.0,15.0,75,0.00,,,0.00,weatherlink.com 1.10,2013-01-13 08:53:00,
2013-01-13 03:08:00,11.2,5.0,30.19,WNW,300,9.0,14.0,76,0.00,,,0.00,weatherlink.com 1.10,2013-01-13 09:08:00,
2013-01-13 03:23:00,11.0,5.0,30.19,NW,313,11.0,15.0,75,0.00,,,0.00,weatherlink.com 1.10,2013-01-13 09:23:00,
2013-01-13 03:38:00,10.9,5.0,30.19,WNW,286,7.0,11.0,77,0.00,,,0.00,weatherlink.com 1.10,2013-01-13 09:38:00,
2013-01-13 03:53:00,10.8,5.0,30.20,NW,305,8.0,13.0,76,0.00,,,0.00,weatherlink.com 1.10,2013-01-13 09:53:00,
2013-01-13 04:08:00,10.7,5.0,30.20,NW,306,6.0,11.0,77,0.00,,,0.00,weatherlink.com 1.10,2013-01-13 10:08:00,
2013-01-13 04:23:00,10.6,5.0,30.20,NW,311,8.0,12.0,77,0.00,,,0.00,weatherlink.com 1.10,2013-01-13 10:23:00,
2013-01-13 04:38:00,10.3,5.0,30.21,NW,309,7.0,9.0,78,0.00,,,0.00,weatherlink.com 1.10,2013-01-13 10:38:00,
2013-01-13 04:53:00,10.1,5.0,30.21,NW,305,11.0,13.0,79,0.00,,,0.00,weatherlink.com 1.10,2013-01-13 10:53:00,
2013-01-13 05:08:00,10.1,5.0,30.21,WNW,296,9.0,13.0,79,0.00,,,0.00,weatherlink.com 1.10,2013-01-13 11:08:00,
2013-01-13 05:23:00,10.0,5.0,30.21,NW,321,7.0,12.0,79,0.00,,,0.00,weatherlink.com 1.10,2013-01-13 11:23:00,
2013-01-13 05:38:00,9.9,5.0,30.22,WNW,303,10.0,14.0,79,0.00,,,0.00,weatherlink.com 1.10,2013-01-13 11:38:00,
2013-01-13 05:54:00,9.8,5.0,30.22,WNW,301,11.0,15.0,80,0.00,,,0.00,weatherlink.com 1.10,2013-01-13 11:54:00,
2013-01-13 06:09:00,9.8,5.0,30.23,NW,318,6.0,13.0,80,0.00,,,0.00,weatherlink.com 1.10,2013-01-13 12:09:00,
2013-01-13 06:24:00,9.6,5.0,30.25,WSW,256,7.0,10.0,81,0.00,,,0.00,weatherlink.com 1.10,2013-01-13 12:24:00,
2013-01-13 06:39:00,9.2,4.0,30.25,West,279,7.0,11.0,79,0.00,,,0.00,weatherlink.com 1.10,2013-01-13 12:39:00,
2013-01-13 06:54:00,8.9,4.0,30.27,West,271,6.0,11.0,79,0.00,,,0.00,weatherlink.com 1.10,2013-01-13 12:54:00,
2013-01-13 07:09:00,8.7,3.0,30.27,WNW,296,8.0,12.0,79,0.00,,,0.00,weatherlink.com 1.10,2013-01-13 13:09:00,
2013-01-13 07:24:00,8.5,3.0,30.27,WNW,300,5.0,11.0,79,0.00,,,0.00,weatherlink.com 1.10,2013-01-13 13:24:00,
2013-01-13 07:39:00,8.5,4.0,30.27,West,279,7.0,10.0,80,0.00,,,0.00,weatherlink.com 1.10,2013-01-13 13:39:00,
2013-01-13 07:54:00,8.4,3.0,30.28,WNW,298,11.0,13.0,80,0.00,,,0.00,weatherlink.com 1.10,2013-01-13 13:54:00,
2013-01-13 08:09:00,8.6,3.0,30.29,WNW,299,11.0,13.0,79,0.00,,,0.00,weatherlink.com 1.10,2013-01-13 14:09:00,
2013-01-13 08:24:00,8.9,3.0,30.29,WNW,293,9.0,13.0,78,0.00,,,0.00,weatherlink.com 1.10,2013-01-13 14:24:00,
2013-01-13 08:39:00,9.2,3.0,30.29,WNW,303,11.0,15.0,77,0.00,,,0.00,weatherlink.com 1.10,2013-01-13 14:39:00,
2013-01-13 08:54:00,9.6,4.0,30.28,NW,304,13.0,16.0,76,0.00,,,0.00,weatherlink.com 1.10,2013-01-13 14:54:00,
2013-01-13 09:10:00,9.8,4.0,30.29,NW,307,13.0,17.0,76,0.00,,,0.00,weatherlink.com 1.10,2013-01-13 15:10:00,
2013-01-13 09:25:00,10.1,4.0,30.29,WNW,300,14.0,17.0,75,0.00,,,0.00,weatherlink.com 1.10,2013-01-13 15:25:00,
2013-01-13 09:40:00,10.3,3.0,30.29,West,275,12.0,17.0,73,0.00,,,0.00,weatherlink.com 1.10,2013-01-13 15:40:00,
2013-01-13 09:55:00,10.7,4.0,30.29,NW,309,8.0,18.0,73,0.00,,,0.00,weatherlink.com 1.10,2013-01-13 15:55:00,
2013-01-13 10:10:00,10.8,3.0,30.30,WNW,286,9.0,17.0,72,0.00,,,0.00,weatherlink.com 1.10,2013-01-13 16:10:00,
2013-01-13 10:25:00,11.5,4.0,30.30,WNW,285,8.0,17.0,73,0.00,,,0.00,weatherlink.com 1.10,2013-01-13 16:25:00,
2013-01-13 10:40:00,12.0,5.0,30.29,WNW,291,14.0,17.0,73,0.00,,,0.00,weatherlink.com 1.10,2013-01-13 16:40:00,
2013-01-13 10:55:00,12.6,6.0,30.29,WNW,284,13.0,17.0,73,0.00,,,0.00,weatherlink.com 1.10,2013-01-13 16:55:00,
2013-01-13 11:10:00,13.5,6.0,30.28,NW,308,14.0,20.0,73,0.00,,,0.00,weatherlink.com 1.10,2013-01-13 17:10:00,
2013-01-13 11:25:00,13.6,6.0,30.29,West,277,7.0,15.0,70,0.00,,,0.00,weatherlink.com 1.10,2013-01-13 17:25:00,
2013-01-13 11:40:00,14.2,7.0,30.29,West,263,10.0,15.0,73,0.00,,,0.00,weatherlink.com 1.10,2013-01-13 17:40:00,
2013-01-13 11:55:00,14.8,7.0,30.28,WNW,295,10.0,17.0,72,0.00,,,0.00,weatherlink.com 1.10,2013-01-13 17:55:00,
2013-01-13 12:10:00,15.5,8.0,30.27,NW,305,12.0,17.0,72,0.00,,,0.00,weatherlink.com 1.10,2013-01-13 18:10:00,
2013-01-13 12:25:00,15.1,7.0,30.27,WNW,300,9.0,15.0,71,0.00,,,0.00,weatherlink.com 1.10,2013-01-13 18:25:00,
2013-01-13 12:41:00,15.4,8.0,30.27,WNW,302,6.0,18.0,72,0.00,,,0.00,weatherlink.com 1.10,2013-01-13 18:41:00,
2013-01-13 12:56:00,15.8,9.0,30.27,West,277,11.0,18.0,73,0.00,,,0.00,weatherlink.com 1.10,2013-01-13 18:56:00,
2013-01-13 13:11:00,16.3,9.0,30.27,West,275,7.0,18.0,73,0.00,,,0.00,weatherlink.com 1.10,2013-01-13 19:11:00,
2013-01-13 13:26:00,16.8,10.0,30.27,WNW,290,13.0,15.0,73,0.00,,,0.00,weatherlink.com 1.10,2013-01-13 19:26:00,
2013-01-13 13:41:00,16.8,10.0,30.27,WNW,302,6.0,14.0,73,0.00,,,0.00,weatherlink.com 1.10,2013-01-13 19:41:00,
2013-01-13 13:56:00,17.3,10.0,30.28,WNW,283,13.0,16.0,73,0.00,,,0.00,weatherlink.com 1.10,2013-01-13 19:56:00,
2013-01-13 14:11:00,17.8,10.0,30.28,WNW,288,11.0,13.0,72,0.00,,,0.00,weatherlink.com 1.10,2013-01-13 20:11:00,
2013-01-13 14:26:00,18.0,10.0,30.29,WNW,292,7.0,14.0,72,0.00,,,0.00,weatherlink.com 1.10,2013-01-13 20:26:00,
2013-01-13 14:41:00,18.2,11.0,30.30,West,274,6.0,16.0,72,0.00,,,0.00,weatherlink.com 1.10,2013-01-13 20:41:00,
2013-01-13 14:56:00,18.7,11.0,30.29,West,272,6.0,15.0,73,0.00,,,0.00,weatherlink.com 1.10,2013-01-13 20:56:00,
2013-01-13 15:11:00,18.8,11.0,30.30,West,272,6.0,14.0,71,0.00,,,0.00,weatherlink.com 1.10,2013-01-13 21:11:00,
2013-01-13 15:26:00,19.2,12.0,30.30,West,259,6.0,14.0,73,0.00,,,0.00,weatherlink.com 1.10,2013-01-13 21:26:00,
2013-01-13 15:41:00,19.9,12.0,30.31,NW,306,12.0,15.0,70,0.00,,,0.00,weatherlink.com 1.10,2013-01-13 21:41:00,
2013-01-13 15:56:00,19.7,11.0,30.31,West,281,11.0,14.0,70,0.00,,,0.00,weatherlink.com 1.10,2013-01-13 21:56:00,
2013-01-13 16:12:00,19.5,11.0,30.32,WNW,294,11.0,15.0,69,0.00,,,0.00,weatherlink.com 1.10,2013-01-13 22:12:00,
2013-01-13 16:27:00,19.4,11.0,30.32,West,269,7.0,14.0,69,0.00,,,0.00,weatherlink.com 1.10,2013-01-13 22:27:00,
2013-01-13 16:42:00,19.3,10.0,30.33,WSW,255,9.0,12.0,68,0.00,,,0.00,weatherlink.com 1.10,2013-01-13 22:42:00,
2013-01-13 16:57:00,18.8,10.0,30.34,WNW,283,4.0,12.0,69,0.00,,,0.00,weatherlink.com 1.10,2013-01-13 22:57:00,
2013-01-13 17:12:00,18.2,10.0,30.34,NW,311,5.0,13.0,69,0.00,,,0.00,weatherlink.com 1.10,2013-01-13 23:12:00,
2013-01-13 17:27:00,18.0,9.0,30.34,West,281,6.0,10.0,68,0.00,,,0.00,weatherlink.com 1.10,2013-01-13 23:27:00,
2013-01-13 17:42:00,17.8,8.0,30.35,West,260,5.0,10.0,66,0.00,,,0.00,weatherlink.com 1.10,2013-01-13 23:42:00,
2013-01-13 17:57:00,17.1,9.0,30.35,WNW,289,4.0,8.0,69,0.00,,,0.00,weatherlink.com 1.10,2013-01-13 23:57:00,
2013-01-13 18:12:00,16.1,9.0,30.35,WNW,294,1.0,5.0,72,0.00,,,0.00,weatherlink.com 1.10,2013-01-14 00:12:00,
2013-01-13 18:27:00,15.5,8.0,30.35,NW,304,3.0,6.0,72,0.00,,,0.00,weatherlink.com 1.10,2013-01-14 00:27:00,
2013-01-13 18:42:00,15.9,8.0,30.36,WNW,292,5.0,6.0,71,0.00,,,0.00,weatherlink.com 1.10,2013-01-14 00:42:00,
2013-01-13 18:57:00,15.8,8.0,30.36,West,272,3.0,7.0,70,0.00,,,0.00,weatherlink.com 1.10,2013-01-14 00:57:00,
2013-01-13 19:12:00,15.9,8.0,30.37,WNW,282,4.0,8.0,70,0.00,,,0.00,weatherlink.com 1.10,2013-01-14 01:12:00,
2013-01-13 19:27:00,15.9,7.0,30.37,West,271,4.0,7.0,69,0.00,,,0.00,weatherlink.com 1.10,2013-01-14 01:27:00,
2013-01-13 19:43:00,15.5,7.0,30.38,West,277,5.0,7.0,70,0.00,,,0.00,weatherlink.com 1.10,2013-01-14 01:43:00,
2013-01-13 19:58:00,15.4,8.0,30.38,WNW,287,6.0,8.0,71,0.00,,,0.00,weatherlink.com 1.10,2013-01-14 01:58:00,
2013-01-13 20:13:00,15.2,7.0,30.38,West,279,4.0,7.0,71,0.00,,,0.00,weatherlink.com 1.10,2013-01-14 02:13:00,
2013-01-13 20:28:00,14.8,7.0,30.38,West,269,1.0,4.0,72,0.00,,,0.00,weatherlink.com 1.10,2013-01-14 02:28:00,
2013-01-13 20:43:00,13.9,7.0,30.38,West,273,1.0,4.0,74,0.00,,,0.00,weatherlink.com 1.10,2013-01-14 02:43:00,
2013-01-13 20:58:00,12.4,7.0,30.38,WNW,289,0.0,2.0,77,0.00,,,0.00,weatherlink.com 1.10,2013-01-14 02:58:00,
2013-01-13 21:13:00,12.0,7.0,30.39,WNW,289,0.0,1.0,79,0.00,,,0.00,weatherlink.com 1.10,2013-01-14 03:13:00,
2013-01-13 21:28:00,11.7,6.0,30.39,WNW,289,0.0,0.0,79,0.00,,,0.00,weatherlink.com 1.10,2013-01-14 03:28:00,
2013-01-13 21:43:00,11.1,6.0,30.39,WNW,289,0.0,0.0,78,0.00,,,0.00,weatherlink.com 1.10,2013-01-14 03:43:00,
2013-01-13 21:58:00,10.1,6.0,30.40,WNW,289,0.0,0.0,82,0.00,,,0.00,weatherlink.com 1.10,2013-01-14 03:58:00,
2013-01-13 22:13:00,10.4,6.0,30.40,WNW,289,0.0,0.0,82,0.00,,,0.00,weatherlink.com 1.10,2013-01-14 04:13:00,
2013-01-13 22:28:00,10.0,5.0,30.40,WNW,289,0.0,0.0,80,0.00,,,0.00,weatherlink.com 1.10,2013-01-14 04:28:00,
2013-01-13 22:43:00,9.2,5.0,30.42,WNW,289,0.0,0.0,83,0.00,,,0.00,weatherlink.com 1.10,2013-01-14 04:43:00,
2013-01-13 22:58:00,9.7,6.0,30.42,WNW,289,0.0,0.0,84,0.00,,,0.00,weatherlink.com 1.10,2013-01-14 04:58:00,
2013-01-13 23:14:00,9.0,5.0,30.43,WNW,289,0.0,0.0,82,0.00,,,0.00,weatherlink.com 1.10,2013-01-14 05:14:00,
2013-01-13 23:29:00,9.1,6.0,30.43,WNW,289,0.0,1.0,85,0.00,,,0.00,weatherlink.com 1.10,2013-01-14 05:29:00,
2013-01-13 23:44:00,9.6,5.0,30.43,WNW,288,0.0,2.0,83,0.00,,,0.00,weatherlink.com 1.10,2013-01-14 05:44:00,
2013-01-13 23:59:00,9.9,6.0,30.44,WNW,288,1.0,2.0,83,0.00,,,0.00,weatherlink.com 1.10,2013-01-14 05:59:00,